EHI
0 0 0 0 0 0 0 0 0 0 0 0 0 0 0 0 0 0 0 0 0 0 0 0 0 0 0 0 0 0 0 0 0 0 0 0 0 0 0 0 0 0 0
0 0 0 0 0 0 0 0 0 0 0 0 0 0 0 0 0 0 0 0 0 0 0 0 0 0 0 0 0 0 0 0 0 0 0 0 0 0 0 0 0 0 0
0 0 0 0 0 0 0 0 0 0 0 0 0 0 0 0 0 0 0 0 0 0 0 0 0 0 0 0 0 0 0 0 0 0 0 0 0 0 0 0 0 0 0
0 0 0 0 0 0 0 0 0 0 0 0 0 0 0 0 0 0 0 0 0 0 0 0 0 0 0 0 0 0 0 0 0 0 0 0 0 0 0 0 0 0 0
0 0 0 0 0 0 0 0 0 0 0 0 0 0 0 0 0 0 0 0 0 0 0 0 0 0 0 0 0 0 0 0 0 0 0 0 0 0 0 0 0 0 0
0 0 0 0 0 0 0 0 0 0 0 0 0 0 0 0 0 0 0 0 0 0 0 0 0 0 0 0 0 0 0 0 0 0 0 0 0 0 0 0 0 0 0
0 0 0 0 0 0 0 0 0 0 0 0 0 0 0 0 0 0 0 0 0 0 0 0 0 0 0 0 0 0 0 0 0 0 0 0 0 0 0 0 0 0 0
0 0 0 0 0 0 0 0 0 0 0 0 0 0 0 0 0 0 0 0 0 0 0 0 0 0 0 0 0 0 0 0 0 0 0 0 0 0 0 0 0 0 0
0 0 0 0 0 0 0 0 0 0 0 0 0 0 0 0 0 0 0 0 0 0 0 0 0 0 0 0 0 0 0 0 0 0 0 0 0 0 0 0 0 0 0
0 0 0 0 0 0 0 0 0 0 0 0 0 0 0 0 0 0 0 0 0 0 0 0 0 0 0 0 0 0 0 0 0 0 0 0 0 0 0 0 0 0 0
0 0 0 0 0 0 0 0 0 0 0 0 0 0 0 0 0 0 0 0 0 0 0 0 0 0 0 0 0 0 0 0 0 0 0 0 0 0 0 0 0 0 0
0 0 0 0 0 0 0 0 0 0 0 0 0 0 0 0 0 0 0 0 0 0 0 0 0 0 0 0 0 0 0 0 0 0 0 0 0 0 0 0 0 0 0
0 0 0 0 0 0 0 0 0 0 0 0 0 0 0 0 0 0 0 0 0 0 0 0 0 0 0 0 0 0 0 0 0 0 0 0 0 0 0 0 0 0 0
0 0 0 0 0 0 0 0 0 0 0 0 0 0 0 0 0 0 0 0 0 0 0 0 0 0 0 0 0 0 0 0 0 0 0 0 0 0 0 0 0 0 0
0 0 0 0 0 0 0 0 0 0 0 0 0 0 0 0 0 0 0 0 0 0 0 0 0 0 0 0 0 0 0 0 0 0 0 0 0 0 0 0 0 0 0
0 0 0 0 0 0 0 0 0 0 0 0 0 0 0 0 0 0 0 0 0 0 0 0 0 0 0 0 0 0 0 0 0 0 0 0 0 0 0 0 0 0 0
0 0 0 0 0 0 0 0 0 0 0 0 0 0 0 0 0 0 0 0 0 0 0 0 0 0 0 0 0 0 0 0 0 0 0 0 0 0 0 0 0 0 0
0 0 0 0 0 0 0 0 0 0 0 0 0 0 0 0 0 0 0 0 0 0 0 0 0 0 0 0 0 0 0 0 0 0 0 0 0 0 0 0 0 0 0
0 0 0 0 0 0 0 0 0 0 0 0 0 0 0 0 0 0 0 0 0 0 0 0 0 0 0 0 0 0 0 0 0 0 0 0 0 0 0 0 0 0 0
0 0 0 0 0 0 0 0 0 0 0 0 0 0 0 0 0 0 0 0 0 0 0 0 0 0 0 0 0 0 0 0 0 0 0 0 0 0 0 0 0 0 0
0 0 0 0 0 0 0 0 0 0 0 0 0 0 0 0 0 0 0 0 0 0 0 0 0 0 0 0 0 0 0 0 0 0 0 0 0 0 0 0 0 0 0
0 0 0 0 0 0 0 0 0 0 0 0 0 0 0 0 0 0 0 0 0 0 0 0 0 0 0 0 0 0 0 0 0 0 0 0 0 0 0 0 0 0 0
0 0 0 0 0 0 0 0 0 0 0 0 0 0 0 0 0 0 0 0 0 0 0 0 0 0 0 0 0 0 0 0 0 0 0 0 0 0 0 0 0 0 0
0 0 0 0 0 0 0 0 0 0 0 0 0 0 0 0 0 0 0 0 0 0 0 0 0 0 0 0 0 0 0 0 0 0 0 0 0 0 0 0 0 0 0
0 0 0 0 0 0 0 0 0 0 0 0 0 0 0 0 0 0 0 0 0 0 0 0 0 0 0 0 0 0 0 0 0 0 0 0 0 0 0 0 0 0 0
0 0 0 0 0 0 0 0 0 0 0 0 0 0 0 0 0 0 0 0 0 0 0 0 0 0 0 0 0 0 0 0 0 0 0 0 0 0 0 0 0 0 0
Wind_Speed
6 6 6 5 5 5 5 6 6 7 8 9 9 10 10 11 11 11 11 13 14 14 14 15 16 16 13 12 13 13 13 14 17 17 17 20 24 23 20 20 19 20 19
5 5 5 4 4 4 5 6 7 8 8 9 9 10 11 11 12 13 13 14 15 16 16 16 17 14 17 15 14 15 15 15 16 19 19 19 24 23 22 21 19 17 18
4 4 3 3 4 5 6 6 7 8 8 9 9 10 11 12 13 13 14 16 16 17 17 17 17 17 18 15 17 16 14 14 15 17 19 18 18 18 20 20 22 18 18
3 2 2 4 5 6 6 7 7 8 9 9 10 11 11 12 12 13 16 17 17 17 17 17 17 17 18 19 16 17 16 17 17 16 16 16 17 19 18 17 17 16 16
2 1 2 4 5 6 6 7 8 8 9 9 10 11 12 12 11 16 17 18 18 18 17 17 17 19 22 19 17 17 18 17 16 16 16 17 17 18 17 16 17 16 17
2 1 3 4 5 6 7 8 8 9 9 10 11 12 13 11 16 21 20 18 18 18 17 17 17 18 20 25 26 26 26 22 19 17 17 19 22 21 19 17 17 18 18
1 1 3 5 6 7 8 8 9 9 10 12 13 14 14 15 19 22 23 19 17 16 17 17 15 16 22 19 23 27 26 27 25 20 21 22 22 21 21 22 20 20 20
0 2 4 5 7 8 9 9 10 10 11 12 13 14 15 15 19 21 24 18 16 16 16 18 19 19 18 22 23 22 20 19 22 20 19 21 21 22 21 22 22 21 20
1 3 4 6 8 9 10 10 11 11 12 13 13 15 15 16 18 21 22 16 14 17 17 18 19 20 24 29 25 21 21 20 22 28 30 29 31 31 25 17 16 16 16
3 4 6 7 8 9 10 11 11 12 13 13 13 14 14 15 18 20 22 13 15 15 16 17 21 22 27 31 24 21 22 22 22 23 22 22 21 21 24 17 14 14 15
4 5 6 7 8 10 11 11 12 12 13 13 14 12 13 14 17 19 22 14 15 17 16 15 15 26 31 33 29 20 23 26 21 19 17 16 15 14 14 13 13 13 15
5 6 7 8 8 8 10 11 12 12 13 13 13 12 10 11 15 18 22 22 23 18 16 15 17 30 34 32 23 23 30 26 15 14 14 14 14 13 13 15 17 17 16
6 7 8 9 9 9 10 11 11 11 10 11 11 12 11 10 13 19 22 25 27 19 15 23 28 31 28 20 22 27 23 14 14 14 15 14 14 15 15 14 16 15 16
7 8 8 9 9 9 8 8 9 10 10 11 12 13 12 12 12 12 14 16 20 18 15 20 26 24 20 21 20 16 13 13 15 14 14 15 14 14 14 13 13 13 12
8 8 8 8 9 9 9 8 10 10 11 14 13 13 14 14 16 25 21 17 17 17 20 15 14 14 14 14 14 14 14 14 14 13 14 14 14 14 14 12 12 11 9
7 8 7 7 8 9 10 10 11 13 17 19 20 19 15 19 27 28 29 29 29 27 20 13 13 14 14 15 15 15 15 14 14 14 14 14 14 14 14 12 10 8 6
8 8 7 8 8 9 9 10 12 12 14 17 18 20 20 24 26 27 28 28 25 23 14 12 13 14 14 14 14 15 15 15 14 14 14 14 13 13 12 11 9 7 5
7 8 8 8 8 9 9 10 11 12 12 11 13 18 21 22 24 26 26 21 14 13 11 12 13 14 14 14 14 15 15 15 14 13 13 13 12 12 11 10 8 8 6
7 6 7 8 8 9 10 10 11 12 12 12 12 13 18 20 22 21 20 12 12 12 12 13 13 13 14 14 14 14 15 14 15 14 13 13 12 11 9 9 8 10 7
7 9 10 9 9 9 9 10 11 11 12 12 12 13 13 14 12 13 12 11 11 12 13 13 13 14 14 14 14 14 14 14 15 13 12 11 11 9 9 9 7 7 5
7 8 11 9 8 9 10 11 11 11 11 12 12 14 20 14 12 13 12 12 12 12 13 14 14 14 14 13 13 14 16 14 13 12 11 11 10 9 8 7 7 6 5
7 7 7 8 9 9 11 11 11 11 12 13 12 13 20 13 11 11 12 12 12 12 13 13 13 13 13 13 14 14 14 14 13 12 11 11 9 9 8 6 6 6 5
7 8 9 9 10 13 12 10 10 11 11 12 12 12 12 11 11 12 12 12 12 12 13 13 14 14 13 13 13 13 13 13 12 12 11 10 9 8 7 6 6 6 5
8 9 10 10 10 10 10 10 10 11 11 12 12 12 12 12 12 13 13 12 12 13 13 13 14 18 22 18 13 12 12 13 12 9 9 9 9 7 6 6 6 6 5
8 9 10 10 10 10 10 10 10 11 11 11 11 11 12 12 12 12 12 12 14 14 17 17 13 15 20 24 19 15 19 20 15 10 8 7 8 7 7 6 5 5 4
9 10 9 9 9 9 9 10 10 11 11 11 11 11 11 12 12 12 12 12 12 14 15 14 17 20 23 18 18 22 22 19 17 15 8 6 7 7 7 5 5 5 5
Wind_Direction
101 91 79 64 47 34 29 17 1 351 346 342 336 329 327 326 326 321 318 316 312 309 308 306 305 302 301 300 298 293 290 289 288 291 294 298 301 300 298 295 292 291 288
103 88 73 58 35 23 19 7 353 345 340 334 326 321 323 324 323 318 316 314 311 310 309 307 305 305 303 301 298 295 293 292 292 295 297 298 298 300 300 299 298 293 289
105 86 68 42 21 14 6 355 345 337 329 326 322 322 322 322 317 314 315 313 311 308 308 307 306 307 304 303 302 298 297 298 297 294 294 296 297 299 302 299 296 292 291
111 86 47 23 10 2 352 342 334 326 321 321 320 319 318 317 313 319 318 312 310 308 306 305 307 307 306 306 302 302 303 302 297 295 295 298 299 300 299 298 298 296 295
136 91 29 6 359 348 340 330 321 315 314 314 314 316 317 314 318 323 316 312 311 308 307 308 308 306 302 301 302 303 304 300 299 299 300 302 301 302 301 299 297 298 295
150 49 7 352 346 335 327 318 311 310 313 314 315 316 315 313 319 316 315 312 310 309 311 310 308 305 305 305 304 302 301 300 300 301 303 302 301 299 299 298 298 296 293
132 7 351 342 330 322 314 309 312 315 316 314 314 315 313 313 315 316 316 313 309 309 310 309 308 307 308 306 306 306 303 300 298 301 301 300 300 299 299 297 293 291 288
135 343 339 326 317 313 311 314 319 318 314 311 311 311 310 310 316 318 318 316 311 309 309 308 307 308 309 311 310 308 305 305 305 304 299 298 296 295 292 292 292 289 285
313 327 324 316 312 312 316 321 319 315 310 309 309 310 310 313 319 319 321 317 311 312 310 309 309 308 311 314 314 310 310 310 309 306 302 299 298 298 296 293 290 289 290
317 316 311 308 309 313 316 314 312 310 306 308 307 309 311 313 315 317 321 316 314 314 311 310 309 311 314 317 315 313 312 313 312 309 307 306 302 297 295 291 293 294 294
307 303 304 309 312 311 309 310 308 306 305 307 310 312 313 311 313 317 321 320 316 314 312 312 313 316 317 317 317 313 311 313 311 310 309 304 300 296 297 297 293 290 290
300 302 307 310 310 304 305 306 307 308 310 314 315 315 312 313 315 317 318 317 315 312 311 312 314 317 319 320 319 315 316 317 311 307 304 302 303 303 302 299 293 286 278
303 306 307 306 303 301 301 305 309 313 314 315 314 313 317 318 316 316 317 317 317 315 310 313 316 319 321 319 317 319 320 314 310 307 305 305 304 301 299 296 293 287 281
302 303 302 302 303 305 304 304 311 314 313 312 313 315 317 315 315 317 317 317 318 317 316 317 319 319 319 318 319 319 317 311 310 307 306 304 303 301 300 299 298 296 295
296 296 299 301 303 305 305 307 308 303 304 308 310 312 312 312 313 315 317 318 318 317 323 320 320 321 320 319 319 318 316 315 313 311 309 307 307 305 303 303 297 297 302
291 299 303 304 304 307 310 308 298 295 300 301 301 303 304 304 309 314 318 319 320 325 327 320 320 319 319 320 319 318 316 315 315 313 310 309 309 308 307 306 308 315 328
285 296 300 301 305 309 309 309 310 309 304 302 302 304 304 308 312 316 318 321 324 327 323 318 317 318 318 317 316 314 313 314 313 311 311 311 310 310 311 317 328 337 345
287 291 295 300 304 305 305 306 307 310 312 311 309 308 310 314 316 317 320 325 323 325 320 317 317 317 316 315 313 312 311 312 313 313 312 311 312 313 319 330 338 345 344
291 297 304 304 303 302 303 303 303 305 306 309 311 313 318 320 318 319 326 325 320 319 319 318 317 316 314 312 311 310 310 310 311 312 311 312 314 317 324 331 333 341 345
291 299 306 305 302 302 302 302 304 305 307 309 312 316 321 321 319 323 325 321 319 318 319 318 316 313 312 310 310 310 310 310 311 311 312 312 314 318 322 325 329 333 336
300 302 304 300 298 299 300 302 303 305 308 309 309 313 319 318 317 319 320 320 320 319 319 317 314 312 311 311 310 311 311 309 309 309 311 312 315 318 319 319 322 323 326
300 302 302 300 299 299 301 302 305 307 307 308 309 313 317 316 314 316 317 318 318 318 317 314 311 310 310 311 311 310 308 307 308 309 311 315 317 318 318 320 324 327 335
298 298 298 298 298 300 302 302 304 305 308 309 309 311 314 315 316 316 316 318 319 317 316 314 311 310 311 312 311 307 304 304 304 306 314 317 317 318 320 323 328 334 344
294 297 300 300 300 301 303 305 307 307 307 308 309 310 311 313 314 315 317 317 318 316 315 314 311 311 315 318 315 311 306 307 311 316 317 308 310 315 320 325 329 340 343
301 301 300 300 301 302 304 305 307 307 307 306 306 309 311 313 312 314 316 317 318 316 315 314 312 316 319 319 319 317 318 327 336 333 316 307 311 314 321 327 335 348 3
302 300 300 300 300 302 304 305 304 304 303 304 307 309 310 310 311 314 317 318 319 316 314 313 315 319 320 319 320 323 329 337 340 340 332 317 322 333 341 349 2 18 30